Location: Huntsville
(41.2590°N, 111.7678°W)
Time: 10:26:43
(UTC+00:00)

Courier 1B Rocket - Pass Details

Date: 17 June 2021
Orbit: 920 x 1202 km, 28.2° (Epoch: 29 July)

Event Time Altitude Azimuth Distance (km) Brightness Sun altitude
Rises 04:39:37 0° 241° (WSW) 3,653 8.1 -14.5°
Reaches altitude 10° 04:42:48 10° 228° (SW) 2,669 7.3 -14.9°
Maximum altitude 04:47:47 24° 176° (S) 1,813 6.0 -15.4°
Enters shadow 04:49:10 22° 157° (SSE) 1,886 5.9 -15.6°
Drops below altitude 10° 04:52:39 10° 124° (SE) 2,605 - -16.0°
Sets 04:55:42 0° 111° (ESE) 3,546 - -16.3°
